NDF57EL EDDC-EDDB

Flight info

Callsign NDF57EL
Flight time 0h 25m
Altitude 10000
Route OSKAN9E OSKAN T203 ATGUP ATGUP1R
Aircraft A321/M-SDE3FGHIRWY/LB1

Departure

Time 2026-04-30 21:27
Airport Dresden Airport (EDDC)

Arrival

Time 2026-04-30 21:52
Airport Berlin Brandenburg Airport (EDDB)
Time Latitude Longitude Altitude Speed Heading
2026-04-30 21:14 51.12598 13.76609 748 ft 0 kts 220°
2026-04-30 21:18 51.12603 13.76616 748 ft 4 kts 220°
2026-04-30 21:18 51.12624 13.76643 751 ft 4 kts 220°
2026-04-30 21:18 51.12641 13.76666 748 ft 3 kts 221°
2026-04-30 21:18 51.12653 13.76696 751 ft 4 kts 279°
2026-04-30 21:19 51.12643 13.76728 749 ft 4 kts 310°
2026-04-30 21:19 51.12630 13.76752 748 ft 0 kts 310°
2026-04-30 21:21 51.12664 13.76689 749 ft 15 kts 311°
2026-04-30 21:21 51.12735 13.76558 753 ft 17 kts 311°
2026-04-30 21:21 51.12920 13.76570 751 ft 18 kts 41°
2026-04-30 21:22 51.13020 13.76711 750 ft 20 kts 41°
2026-04-30 21:22 51.13456 13.77292 731 ft 34 kts 40°
2026-04-30 21:23 51.13641 13.77560 720 ft 38 kts 43°
2026-04-30 21:23 51.13840 13.77837 713 ft 36 kts 41°
2026-04-30 21:23 51.14153 13.78265 711 ft 24 kts 39°
2026-04-30 21:24 51.14264 13.78336 700 ft 16 kts 333°
2026-04-30 21:24 51.14346 13.78194 698 ft 19 kts 307°
2026-04-30 21:24 51.14321 13.78041 702 ft 11 kts 225°
2026-04-30 21:24 51.14319 13.78037 708 ft 0 kts 225°
2026-04-30 21:25 51.14318 13.78036 708 ft 1 kts 225°
2026-04-30 21:26 51.13986 13.77575 719 ft 91 kts 220°
2026-04-30 21:26 51.13326 13.76693 746 ft 154 kts 220°
2026-04-30 21:27 51.11716 13.74536 2328 ft 142 kts 220°
2026-04-30 21:27 51.10954 13.73512 2905 ft 147 kts 221°
2026-04-30 21:27 51.10200 13.72398 3451 ft 149 kts 222°
2026-04-30 21:28 51.08666 13.70130 4529 ft 154 kts 221°
2026-04-30 21:28 51.07870 13.68973 5087 ft 156 kts 220°
2026-04-30 21:28 51.06226 13.66615 6182 ft 162 kts 219°
2026-04-30 21:29 51.05377 13.65408 6747 ft 166 kts 219°
2026-04-30 21:29 51.05107 13.60393 7804 ft 197 kts 326°
2026-04-30 21:30 51.07885 13.59097 8146 ft 227 kts 353°
2026-04-30 21:31 51.12688 13.57570 9146 ft 247 kts 353°
2026-04-30 21:31 51.16333 13.56396 10121 ft 278 kts 353°
2026-04-30 21:32 51.20134 13.55137 10432 ft 279 kts 352°
2026-04-30 21:32 51.22031 13.54506 10437 ft 278 kts 352°
2026-04-30 21:32 51.23898 13.53886 10438 ft 278 kts 352°
2026-04-30 21:32 51.25792 13.53258 10439 ft 278 kts 352°
2026-04-30 21:33 51.27687 13.52632 10437 ft 278 kts 353°
2026-04-30 21:33 51.31467 13.51378 10438 ft 277 kts 353°
2026-04-30 21:33 51.33358 13.50752 10439 ft 277 kts 353°
2026-04-30 21:34 51.35247 13.50129 10436 ft 277 kts 353°
2026-04-30 21:34 51.39164 13.48854 10446 ft 317 kts 352°
2026-04-30 21:34 51.41381 13.48136 10433 ft 331 kts 352°
2026-04-30 21:35 51.43666 13.47384 10438 ft 344 kts 352°
2026-04-30 21:35 51.46105 13.46581 10437 ft 370 kts 352°
2026-04-30 21:35 51.48664 13.45729 10079 ft 377 kts 351°
2026-04-30 21:35 51.51233 13.44861 9957 ft 378 kts 351°
2026-04-30 21:36 51.53811 13.43986 9823 ft 378 kts 351°
2026-04-30 21:36 51.56376 13.43115 9689 ft 377 kts 351°
2026-04-30 21:37 51.63954 13.40555 7577 ft 367 kts 350°
2026-04-30 21:37 51.66448 13.39714 6834 ft 365 kts 350°
2026-04-30 21:37 51.68894 13.38893 6087 ft 363 kts 350°
2026-04-30 21:37 51.71348 13.38075 5391 ft 358 kts 350°
2026-04-30 21:38 51.73769 13.37267 4686 ft 353 kts 349°
2026-04-30 21:38 51.76154 13.36468 4157 ft 348 kts 349°
2026-04-30 21:38 51.78536 13.35669 3994 ft 349 kts 349°
2026-04-30 21:38 51.80851 13.34884 4003 ft 329 kts 349°
2026-04-30 21:39 51.83014 13.34145 4009 ft 307 kts 349°
2026-04-30 21:39 51.85032 13.33459 4010 ft 287 kts 349°
2026-04-30 21:39 51.86926 13.32817 4009 ft 269 kts 349°
2026-04-30 21:39 51.88681 13.32218 4008 ft 253 kts 349°
2026-04-30 21:40 51.90356 13.31647 4006 ft 238 kts 349°
2026-04-30 21:40 51.91916 13.31117 4027 ft 220 kts 349°
2026-04-30 21:40 51.93353 13.30631 4012 ft 204 kts 349°
2026-04-30 21:40 51.94733 13.30167 4012 ft 202 kts 349°
2026-04-30 21:41 51.96107 13.29703 4006 ft 202 kts 350°
2026-04-30 21:41 51.97494 13.29236 4033 ft 204 kts 350°
2026-04-30 21:41 51.98879 13.28768 4023 ft 204 kts 350°
2026-04-30 21:41 52.00269 13.28296 4013 ft 204 kts 349°
2026-04-30 21:42 52.01657 13.27821 4008 ft 204 kts 349°
2026-04-30 21:42 52.03026 13.27351 4008 ft 204 kts 349°
2026-04-30 21:42 52.04417 13.26872 4009 ft 204 kts 349°
2026-04-30 21:42 52.05805 13.26396 4010 ft 204 kts 349°
2026-04-30 21:43 52.07198 13.25921 4013 ft 204 kts 349°
2026-04-30 21:43 52.08116 13.25607 4012 ft 204 kts 349°
2026-04-30 21:43 52.09979 13.24974 4011 ft 204 kts 349°
2026-04-30 21:43 52.11372 13.24499 4011 ft 204 kts 349°
2026-04-30 21:44 52.12744 13.24031 4007 ft 204 kts 349°
2026-04-30 21:44 52.14136 13.23556 4009 ft 204 kts 349°
2026-04-30 21:44 52.15529 13.23078 4010 ft 204 kts 349°
2026-04-30 21:44 52.16919 13.22602 4009 ft 204 kts 349°
2026-04-30 21:45 52.18313 13.22125 4011 ft 204 kts 349°
2026-04-30 21:45 52.19704 13.21648 4011 ft 204 kts 349°
2026-04-30 21:45 52.21092 13.21167 4011 ft 204 kts 349°
2026-04-30 21:45 52.22482 13.20685 4011 ft 204 kts 349°
2026-04-30 21:46 52.23874 13.20200 4012 ft 204 kts 349°
2026-04-30 21:46 52.25262 13.19718 4011 ft 204 kts 349°
2026-04-30 21:46 52.26647 13.19273 3983 ft 212 kts 354°
2026-04-30 21:46 52.28138 13.19457 3902 ft 219 kts 15°
2026-04-30 21:47 52.29545 13.20030 4223 ft 190 kts 11°
2026-04-30 21:47 52.30723 13.20489 4242 ft 168 kts 26°
2026-04-30 21:47 52.31404 13.21932 4038 ft 161 kts 72°
2026-04-30 21:47 52.31663 13.23675 3892 ft 156 kts 77°
2026-04-30 21:48 52.31818 13.24823 3698 ft 157 kts 76°
2026-04-30 21:48 52.32085 13.26619 3206 ft 165 kts 74°
2026-04-30 21:48 52.32480 13.28943 3014 ft 157 kts 72°
2026-04-30 21:48 52.32801 13.30653 2700 ft 160 kts 71°
2026-04-30 21:49 52.33155 13.32421 2114 ft 165 kts 70°
2026-04-30 21:49 52.33501 13.34086 2021 ft 148 kts 70°
2026-04-30 21:49 52.33695 13.35159 1878 ft 142 kts 71°
2026-04-30 21:49 52.33995 13.36654 1695 ft 138 kts 68°
2026-04-30 21:50 52.34319 13.38125 1511 ft 137 kts 67°
2026-04-30 21:50 52.34653 13.39576 1330 ft 136 kts 66°
2026-04-30 21:50 52.34990 13.41013 1152 ft 135 kts 66°
2026-04-30 21:50 52.35328 13.42445 967 ft 135 kts 66°
2026-04-30 21:51 52.35784 13.44348 705 ft 136 kts 67°
2026-04-30 21:51 52.36020 13.45323 556 ft 136 kts 67°
2026-04-30 21:51 52.36369 13.46763 377 ft 136 kts 67°
2026-04-30 21:51 52.36698 13.48195 245 ft 136 kts 68°
2026-04-30 21:52 52.37018 13.49609 167 ft 122 kts 68°
2026-04-30 21:52 52.37222 13.50451 155 ft 50 kts 68°
2026-04-30 21:52 52.37301 13.50782 155 ft 11 kts 80°
2026-04-30 21:52 52.37306 13.51080 155 ft 23 kts 100°
2026-04-30 21:53 52.37293 13.51168 155 ft 11 kts 105°